Photometre #849[NE_1.6_Dp] Portglenone_MO AOT

File : 20220924_849.hum

24/09/2022,07:16:43,TEMP=9.0,BA=5.68,STAT.A,ExtBa=12.30
24/09/2022,07:21:15,TEMP=9.2,BA=5.68,STAT.A,ExtBa=12.20
24/09/2022,07:26:34,TEMP=9.2,BA=5.68,STAT.A,ExtBa=12.20
24/09/2022,07:32:54,TEMP=9.1,BA=5.68,STAT.A,ExtBa=12.20
24/09/2022,07:40:35,TEMP=9.4,BA=5.68,STAT.A,ExtBa=12.20
24/09/2022,07:50:07,TEMP=9.5,BA=5.64,STAT.A,ExtBa=12.20
24/09/2022,08:02:16,TEMP=9.5,BA=5.68,STAT.B,ExtBa=12.20
24/09/2022,08:15:07,TEMP=11.1,BA=5.64,STAT.A,ExtBa=12.10
24/09/2022,08:17:10,TEMP=11.3,BA=5.64,STAT.A,ExtBa=12.10
24/09/2022,08:22:14,TEMP=11.2,BA=5.68,STAT.A,ExtBa=12.10
24/09/2022,08:30:51,TEMP=12.0,BA=5.68,STAT.A,ExtBa=12.20
24/09/2022,08:40:54,TEMP=12.6,BA=5.68,STAT.C,ExtBa=12.20
24/09/2022,09:16:47,TEMP=14.8,BA=5.60,STAT.A,ExtBa=12.10
24/09/2022,09:18:47,TEMP=14.8,BA=5.60,STAT.A,ExtBa=12.10
24/09/2022,09:20:51,TEMP=14.8,BA=5.56,STAT.F,ExtBa=12.10
24/09/2022,09:58:15,TEMP=16.1,BA=5.56,STAT.D,ExtBa=12.10
24/09/2022,10:00:14,TEMP=16.2,BA=5.56,STAT.D,ExtBa=12.10
24/09/2022,10:03:36,TEMP=15.9,BA=5.56,STAT.D,ExtBa=12.10
24/09/2022,10:18:37,TEMP=15.9,BA=5.64,STAT.F,ExtBa=12.10
24/09/2022,10:38:33,TEMP=16.2,BA=5.52,STAT.D,ExtBa=12.10
24/09/2022,10:48:36,TEMP=16.8,BA=5.52,STAT.D,ExtBa=12.10
24/09/2022,11:03:36,TEMP=16.8,BA=5.64,STAT.D,ExtBa=12.10
24/09/2022,11:18:38,TEMP=16.4,BA=5.64,STAT.F,ExtBa=12.10
24/09/2022,11:33:36,TEMP=16.8,BA=5.52,STAT.D,ExtBa=12.10
24/09/2022,11:48:36,TEMP=16.4,BA=5.64,STAT.D,ExtBa=12.10
24/09/2022,12:03:36,TEMP=16.8,BA=5.64,STAT.D,ExtBa=12.10
24/09/2022,12:18:38,TEMP=17.5,BA=5.64,STAT.F,ExtBa=12.10
24/09/2022,12:33:36,TEMP=17.9,BA=5.52,STAT.D,ExtBa=12.00
24/09/2022,12:48:36,TEMP=18.3,BA=5.64,STAT.D,ExtBa=12.10
24/09/2022,13:03:36,TEMP=18.0,BA=5.64,STAT.D,ExtBa=12.10
24/09/2022,13:18:37,TEMP=18.3,BA=5.64,STAT.F,ExtBa=12.10
24/09/2022,13:55:51,TEMP=18.2,BA=5.52,STAT.D,ExtBa=12.00
24/09/2022,13:57:59,TEMP=17.9,BA=5.52,STAT.D,ExtBa=12.00
24/09/2022,14:03:36,TEMP=16.7,BA=5.60,STAT.D,ExtBa=12.10
24/09/2022,14:18:37,TEMP=16.9,BA=5.64,STAT.F,ExtBa=12.10
24/09/2022,14:33:36,TEMP=17.0,BA=5.64,STAT.D,ExtBa=12.10
24/09/2022,14:48:36,TEMP=15.7,BA=5.64,STAT.D,ExtBa=12.10
24/09/2022,15:03:35,TEMP=16.0,BA=5.64,STAT.D,ExtBa=12.10
24/09/2022,15:18:37,TEMP=16.9,BA=5.64,STAT.F,ExtBa=12.10
24/09/2022,15:33:16,TEMP=16.8,BA=5.52,STAT.A,ExtBa=12.10
24/09/2022,15:44:27,TEMP=15.7,BA=5.64,STAT.A,ExtBa=12.10
24/09/2022,15:56:20,TEMP=15.6,BA=5.64,STAT.C,ExtBa=12.10
24/09/2022,16:06:23,TEMP=14.9,BA=5.64,STAT.A,ExtBa=12.10
24/09/2022,16:15:00,TEMP=14.6,BA=5.64,STAT.A,ExtBa=12.10
24/09/2022,16:22:31,TEMP=14.5,BA=5.64,STAT.A,ExtBa=12.10
24/09/2022,16:29:07,TEMP=14.5,BA=5.64,STAT.A,ExtBa=12.10
24/09/2022,16:34:58,TEMP=14.5,BA=5.56,STAT.B,ExtBa=12.10
24/09/2022,16:47:06,TEMP=14.4,BA=5.64,STAT.A,ExtBa=12.10
24/09/2022,16:56:37,TEMP=14.4,BA=5.64,STAT.A,ExtBa=12.10
24/09/2022,17:04:18,TEMP=14.2,BA=5.64,STAT.A,ExtBa=12.10
24/09/2022,17:10:38,TEMP=13.9,BA=5.64,STAT.A,ExtBa=12.10
24/09/2022,17:15:57,TEMP=13.4,BA=5.64,STAT.A,ExtBa=12.10
24/09/2022,17:20:30,TEMP=12.8,BA=5.64,STAT.A,ExtBa=12.10